Torna al catalogo

GALAXY 19

AttivoComunicazioniGEO
NORAD 33376·PAYLOAD·🇺🇸 United States

Lanciato Sep 24, 2008 da Sea Launch Platform

Loading…

TLE

AggiornatoSource: CelesTrak SupGP

Epoca: Sep 14, 2026, 00:00 UTC

1 33376C 08045A   26257.00000000 -.00000049  00000+0  00000+0 0  2570
2 33376   0.0411 249.2461 0002449 279.6223  87.1189  1.00272589    17

Traccia GALAXY 19 in tempo reale con AllMySat

Download on the App Store